When you browse on this site, cookies collect data to enhance your experience and personalize the content and advertising you see.
Visit our Privacy Policy to learn more. By continuing to use the site, you agree to this use of cookies and data.
  • En España
  • Lista de países
  • Para 7 días
  • Temperatura del agua
  • Mapa Satelital
  • El tiempo en el mapa
  • Informadores
  • user-avatar
    Iniciar sesión

    Tiempo cada hora Madrid

    Hoy, 25 Junio, Martes

    Tiempo Temperatura Precipitaciones Viento Presión Humedad
    00:00 +21°C° 0 mm 2 mps 707 mmHg 60%
    01:00 +21°C° 0 mm 2 mps 707 mmHg 62%
    02:00 +21°C° 0 mm 1 mps 706 mmHg 64%
    03:00 +21°C° 0 mm 1 mps 706 mmHg 67%
    04:00 +21°C° 0 mm 1 mps 706 mmHg 65%
    05:00 +21°C° 0 mm 1 mps 707 mmHg 63%
    06:00 +22°C° 0 mm 1 mps 707 mmHg 59%
    07:00 +24°C° 0 mm 1 mps 707 mmHg 54%
    08:00 +25°C° 0 mm 1 mps 707 mmHg 49%
    09:00 +27°C° 0 mm 1 mps 707 mmHg 44%
    10:00 +28°C° 0 mm 2 mps 707 mmHg 39%
    11:00 +30°C° 0 mm 2 mps 707 mmHg 34%
    12:00 +31°C° 0 mm 3 mps 707 mmHg 28%
    13:00 +34°C° 0 mm 4 mps 707 mmHg 25%
    14:00 +35°C° 0 mm 4 mps 707 mmHg 21%
    15:00 +37°C° 0 mm 5 mps 706 mmHg 18%
    16:00 +37°C° 0 mm 5 mps 706 mmHg 18%
    17:00 +37°C° 0 mm 5 mps 706 mmHg 18%
    18:00 +37°C° 0 mm 5 mps 706 mmHg 17%
    19:00 +35°C° 0 mm 4 mps 706 mmHg 20%
    20:00 +34°C° 0 mm 4 mps 706 mmHg 23%
    21:00 +31°C° 0 mm 3 mps 707 mmHg 25%
    22:00 +29°C° 0 mm 3 mps 707 mmHg 34%
    23:00 +28°C° 0 mm 4 mps 707 mmHg 42%

    Mañana, 26 Junio, Miércoles

    Tiempo Temperatura Precipitaciones Viento Presión Humedad
    00:00 +27°C° 0 mm 4 mps 707 mmHg 51%
    01:00 +26°C° 0 mm 4 mps 707 mmHg 55%
    02:00 +25°C° 0 mm 4 mps 707 mmHg 60%
    03:00 +24°C° 0 mm 3 mps 706 mmHg 64%
    04:00 +24°C° 0 mm 2 mps 707 mmHg 63%
    05:00 +24°C° 0 mm 2 mps 707 mmHg 63%
    06:00 +24°C° 0 mm 1 mps 707 mmHg 62%
    07:00 +25°C° 0 mm 1 mps 707 mmHg 54%
    08:00 +27°C° 0 mm 1 mps 708 mmHg 46%
    09:00 +29°C° 0 mm 2 mps 708 mmHg 38%
    10:00 +30°C° 0 mm 2 mps 708 mmHg 35%
    11:00 +33°C° 0 mm 3 mps 708 mmHg 31%
    12:00 +35°C° 0 mm 3 mps 708 mmHg 27%
    13:00 +36°C° 0 mm 4 mps 708 mmHg 24%
    14:00 +37°C° 0 mm 5 mps 708 mmHg 22%
    15:00 +39°C° 0 mm 5 mps 707 mmHg 19%
    16:00 +39°C° 0 mm 5 mps 707 mmHg 19%
    17:00 +39°C° 0 mm 5 mps 707 mmHg 19%
    18:00 +39°C° 0 mm 5 mps 707 mmHg 18%
    19:00 +36°C° 0 mm 5 mps 707 mmHg 21%
    20:00 +34°C° 0 mm 4 mps 707 mmHg 25%
    21:00 +32°C° 0 mm 4 mps 708 mmHg 28%
    22:00 +30°C° 0 mm 4 mps 708 mmHg 35%
    23:00 +28°C° 0 mm 5 mps 708 mmHg 43%

    Pasado mañana, 27 Junio, Jueves

    Tiempo Temperatura Precipitaciones Viento Presión Humedad
    00:00 +27°C° 0 mm 6 mps 709 mmHg 50%
    01:00 +26°C° 0 mm 5 mps 708 mmHg 51%
    02:00 +26°C° 0 mm 4 mps 708 mmHg 51%
    03:00 +25°C° 0 mm 3 mps 708 mmHg 51%
    04:00 +25°C° 0 mm 3 mps 708 mmHg 50%
    05:00 +25°C° 0 mm 3 mps 708 mmHg 48%
    06:00 +25°C° 0 mm 3 mps 708 mmHg 46%
    07:00 +27°C° 0 mm 4 mps 708 mmHg 38%
    08:00 +30°C° 0 mm 5 mps 708 mmHg 30%
    09:00 +33°C° 0 mm 6 mps 709 mmHg 22%
    10:00 +36°C° 0 mm 7 mps 709 mmHg 19%
    11:00 +39°C° 0 mm 8 mps 709 mmHg 16%
    12:00 +42°C° 0 mm 10 mps 709 mmHg 13%
    13:00 +43°C° 0 mm 9 mps 708 mmHg 12%
    14:00 +43°C° 0 mm 9 mps 708 mmHg 12%
    15:00 +44°C° 0 mm 8 mps 708 mmHg 12%
    16:00 +44°C° 0 mm 7 mps 708 mmHg 12%
    17:00 +43°C° 0 mm 7 mps 708 mmHg 11%
    18:00 +42°C° 0 mm 6 mps 708 mmHg 11%
    19:00 +40°C° 0 mm 6 mps 708 mmHg 15%
    20:00 +36°C° 0 mm 6 mps 708 mmHg 19%
    21:00 +34°C° 0 mm 5 mps 708 mmHg 23%
    22:00 +32°C° 0 mm 4 mps 708 mmHg 26%
    23:00 +30°C° 0 mm 3 mps 708 mmHg 29%

    28 Junio, Viernes

    Tiempo Temperatura Precipitaciones Viento Presión Humedad
    00:00 +29°C° 0 mm 2 mps 708 mmHg 32%
    01:00 +28°C° 0 mm 3 mps 708 mmHg 32%
    02:00 +27°C° 0 mm 3 mps 708 mmHg 31%
    03:00 +27°C° 0 mm 3 mps 708 mmHg 31%
    04:00 +27°C° 0 mm 3 mps 708 mmHg 32%
    05:00 +26°C° 0 mm 3 mps 708 mmHg 33%
    06:00 +26°C° 0 mm 3 mps 708 mmHg 34%
    07:00 +28°C° 0 mm 3 mps 709 mmHg 31%
    08:00 +30°C° 0 mm 3 mps 709 mmHg 28%
    09:00 +32°C° 0 mm 2 mps 709 mmHg 25%
    10:00 +36°C° 0 mm 3 mps 709 mmHg 20%
    11:00 +38°C° 0 mm 3 mps 708 mmHg 16%
    12:00 +42°C° 0 mm 3 mps 708 mmHg 12%
    13:00 +43°C° 0 mm 4 mps 708 mmHg 10%
    14:00 +44°C° 0 mm 4 mps 707 mmHg 9%
    15:00 +46°C° 0 mm 5 mps 707 mmHg 7%
    16:00 +45°C° 0 mm 5 mps 707 mmHg 7%
    17:00 +45°C° 0 mm 6 mps 707 mmHg 7%
    18:00 +45°C° 0 mm 7 mps 706 mmHg 8%
    19:00 +41°C° 0 mm 6 mps 706 mmHg 10%
    20:00 +39°C° 0 mm 6 mps 707 mmHg 12%
    21:00 +35°C° 0 mm 5 mps 707 mmHg 14%
    22:00 +34°C° 0 mm 5 mps 707 mmHg 15%
    23:00 +33°C° 0 mm 4 mps 707 mmHg 16%

    29 Junio, Sábado

    Tiempo Temperatura Precipitaciones Viento Presión Humedad
    00:00 +32°C° 0 mm 4 mps 707 mmHg 18%
    01:00 +30°C° 0 mm 4 mps 707 mmHg 19%
    02:00 +28°C° 0 mm 3 mps 707 mmHg 21%
    03:00 +27°C° 0 mm 3 mps 706 mmHg 22%
    04:00 +27°C° 0 mm 3 mps 707 mmHg 23%
    05:00 +27°C° 0 mm 3 mps 707 mmHg 23%
    06:00 +27°C° 0 mm 2 mps 707 mmHg 24%
    07:00 +30°C° 0 mm 2 mps 708 mmHg 22%
    08:00 +32°C° 0 mm 2 mps 708 mmHg 19%
    09:00 +34°C° 0 mm 1 mps 708 mmHg 17%
    10:00 +36°C° 0 mm 1 mps 708 mmHg 15%
    11:00 +37°C° 0 mm 1 mps 708 mmHg 14%
    12:00 +40°C° 0 mm 1 mps 708 mmHg 12%
    13:00 +41°C° 0 mm 2 mps 707 mmHg 11%
    14:00 +42°C° 0 mm 2 mps 707 mmHg 10%
    15:00 +43°C° 0 mm 2 mps 706 mmHg 9%
    16:00 +43°C° 0 mm 2 mps 706 mmHg 8%
    17:00 +43°C° 0 mm 2 mps 706 mmHg 8%
    18:00 +43°C° 0 mm 2 mps 706 mmHg 8%
    19:00 +40°C° 0 mm 3 mps 706 mmHg 9%
    20:00 +38°C° 0 mm 3 mps 707 mmHg 11%
    21:00 +36°C° 0 mm 4 mps 707 mmHg 12%
    22:00 +35°C° 0 mm 4 mps 707 mmHg 13%
    23:00 +34°C° 0 mm 5 mps 707 mmHg 15%

    30 Junio, Domingo

    Tiempo Temperatura Precipitaciones Viento Presión Humedad
    00:00 +33°C° 0 mm 5 mps 707 mmHg 16%
    01:00 +32°C° 0 mm 4 mps 707 mmHg 18%
    02:00 +30°C° 0 mm 4 mps 707 mmHg 20%
    03:00 +29°C° 0 mm 4 mps 707 mmHg 22%
    04:00 +28°C° 0 mm 4 mps 707 mmHg 23%
    05:00 +28°C° 0 mm 3 mps 707 mmHg 24%
    06:00 +28°C° 0 mm 3 mps 708 mmHg 24%
    07:00 +30°C° 0 mm 3 mps 708 mmHg 22%
    08:00 +31°C° 0 mm 3 mps 708 mmHg 19%
    09:00 +34°C° 0 mm 3 mps 708 mmHg 17%
    10:00 +36°C° 0 mm 3 mps 708 mmHg 16%
    11:00 +38°C° 0 mm 3 mps 708 mmHg 14%
    12:00 +40°C° 0 mm 3 mps 708 mmHg 13%
    13:00 +42°C° 0 mm 3 mps 708 mmHg 11%
    14:00 +43°C° 0 mm 4 mps 707 mmHg 10%
    15:00 +44°C° 0 mm 4 mps 707 mmHg 8%
    16:00 +45°C° 0 mm 5 mps 707 mmHg 8%
    17:00 +43°C° 0 mm 5 mps 707 mmHg 8%
    18:00 +43°C° 0 mm 5 mps 706 mmHg 7%
    19:00 +40°C° 0 mm 5 mps 707 mmHg 11%
    20:00 +37°C° 0 mm 5 mps 707 mmHg 14%
    21:00 +35°C° 0 mm 4 mps 707 mmHg 17%
    22:00 +33°C° 0 mm 4 mps 707 mmHg 20%
    23:00 +31°C° 0 mm 3 mps 707 mmHg 23%
    Mostrar más